QPF
0.00 0.01 0.01 0.02 0.02 0.02 0.02 0.02 0.04 0.04 0.03 0.03 0.02 0.02 0.02 0.03 0.02 0.02 0.02 0.02 0.02 0.01 0.01 0.02 0.02 0.01 0.02 0.02 0.01 0.02 0.02 0.01 0.03 0.01 0.01 0.00 0.00 0.00 0.00 0.00 0.00 0.00 0.00
0.00 0.00 0.00 0.01 0.02 0.02 0.01 0.01 0.03 0.04 0.04 0.02 0.02 0.03 0.03 0.02 0.03 0.02 0.02 0.02 0.02 0.01 0.03 0.02 0.01 0.01 0.02 0.01 0.01 0.02 0.01 0.01 0.02 0.01 0.00 0.00 0.00 0.00 0.00 0.00 0.00 0.00 0.00
0.00 0.00 0.01 0.00 0.01 0.02 0.02 0.02 0.02 0.04 0.03 0.02 0.02 0.02 0.03 0.02 0.03 0.02 0.01 0.01 0.01 0.01 0.02 0.02 0.01 0.02 0.02 0.01 0.01 0.01 0.01 0.01 0.02 0.02 0.00 0.00 0.00 0.00 0.00 0.00 0.00 0.00 0.00
0.00 0.01 0.02 0.01 0.00 0.01 0.02 0.02 0.02 0.04 0.03 0.03 0.03 0.02 0.02 0.02 0.02 0.02 0.01 0.01 0.01 0.02 0.02 0.02 0.01 0.01 0.01 0.01 0.01 0.01 0.00 0.01 0.01 0.01 0.01 0.01 0.01 0.00 0.00 0.00 0.00 0.00 0.00
0.01 0.01 0.02 0.02 0.01 0.02 0.02 0.02 0.03 0.04 0.03 0.03 0.03 0.03 0.02 0.02 0.02 0.02 0.03 0.02 0.02 0.02 0.02 0.01 0.01 0.02 0.02 0.01 0.01 0.00 0.00 0.01 0.01 0.01 0.01 0.01 0.01 0.01 0.00 0.00 0.00 0.00 0.00
0.01 0.01 0.01 0.02 0.02 0.03 0.03 0.03 0.04 0.04 0.03 0.03 0.03 0.03 0.03 0.03 0.05 0.05 0.04 0.02 0.03 0.03 0.02 0.01 0.01 0.02 0.02 0.01 0.01 0.00 0.00 0.00 0.01 0.01 0.01 0.01 0.01 0.01 0.01 0.01 0.00 0.00 0.01
0.02 0.01 0.01 0.01 0.01 0.03 0.03 0.04 0.04 0.04 0.04 0.05 0.04 0.03 0.05 0.05 0.06 0.04 0.03 0.02 0.03 0.04 0.03 0.02 0.01 0.01 0.02 0.01 0.00 0.00 0.00 0.00 0.00 0.01 0.01 0.01 0.01 0.01 0.01 0.01 0.01 0.01 0.01
0.01 0.02 0.01 0.00 0.01 0.02 0.02 0.03 0.03 0.04 0.04 0.05 0.07 0.06 0.06 0.05 0.04 0.03 0.03 0.02 0.03 0.03 0.03 0.02 0.02 0.02 0.02 0.02 0.02 0.01 0.00 0.00 0.00 0.00 0.01 0.01 0.01 0.01 0.01 0.01 0.01 0.01 0.01
0.01 0.01 0.01 0.01 0.01 0.02 0.02 0.02 0.03 0.03 0.03 0.04 0.05 0.06 0.05 0.05 0.04 0.04 0.03 0.03 0.03 0.03 0.03 0.03 0.03 0.02 0.02 0.02 0.01 0.01 0.01 0.01 0.01 0.01 0.01 0.01 0.01 0.01 0.01 0.01 0.01 0.01 0.01
0.01 0.00 0.00 0.01 0.01 0.01 0.01 0.02 0.02 0.02 0.03 0.04 0.05 0.05 0.05 0.05 0.04 0.03 0.03 0.02 0.03 0.03 0.03 0.03 0.04 0.04 0.03 0.02 0.01 0.01 0.01 0.01 0.01 0.01 0.01 0.01 0.01 0.01 0.02 0.01 0.01 0.01 0.01
0.01 0.01 0.01 0.01 0.01 0.02 0.01 0.02 0.02 0.02 0.03 0.04 0.04 0.04 0.04 0.05 0.05 0.04 0.03 0.02 0.03 0.04 0.04 0.04 0.03 0.03 0.02 0.02 0.01 0.01 0.01 0.01 0.01 0.01 0.01 0.01 0.01 0.01 0.01 0.01 0.01 0.01 0.02
0.02 0.02 0.01 0.01 0.01 0.02 0.02 0.02 0.02 0.03 0.04 0.04 0.05 0.05 0.04 0.03 0.04 0.04 0.03 0.02 0.02 0.03 0.03 0.03 0.02 0.02 0.01 0.01 0.01 0.00 0.00 0.00 0.01 0.01 0.01 0.01 0.01 0.01 0.01 0.02 0.02 0.01 0.01
0.04 0.03 0.03 0.02 0.02 0.02 0.02 0.03 0.03 0.04 0.04 0.04 0.05 0.06 0.05 0.03 0.03 0.03 0.02 0.02 0.03 0.04 0.03 0.02 0.02 0.03 0.01 0.01 0.01 0.00 0.00 0.00 0.01 0.01 0.01 0.01 0.01 0.01 0.01 0.02 0.02 0.01 0.01
0.05 0.05 0.05 0.03 0.03 0.02 0.02 0.02 0.03 0.03 0.04 0.05 0.06 0.06 0.06 0.04 0.04 0.04 0.03 0.03 0.03 0.03 0.03 0.04 0.04 0.04 0.02 0.01 0.01 0.01 0.00 0.01 0.01 0.02 0.02 0.01 0.00 0.00 0.01 0.01 0.01 0.01 0.00
0.05 0.05 0.05 0.05 0.04 0.04 0.03 0.02 0.02 0.02 0.02 0.03 0.05 0.07 0.08 0.07 0.05 0.06 0.06 0.05 0.04 0.03 0.03 0.03 0.04 0.04 0.02 0.01 0.01 0.01 0.01 0.01 0.01 0.01 0.01 0.00 0.01 0.01 0.00 0.00 0.00 0.00 0.00
0.04 0.05 0.04 0.06 0.05 0.05 0.03 0.03 0.02 0.01 0.01 0.01 0.03 0.05 0.06 0.05 0.05 0.05 0.05 0.06 0.05 0.05 0.04 0.03 0.02 0.03 0.02 0.01 0.01 0.01 0.01 0.01 0.01 0.00 0.00 0.00 0.01 0.01 0.01 0.01 0.01 0.01 0.00
0.03 0.04 0.04 0.05 0.06 0.04 0.04 0.03 0.02 0.02 0.01 0.01 0.01 0.02 0.03 0.03 0.03 0.04 0.05 0.04 0.05 0.06 0.05 0.03 0.02 0.02 0.02 0.01 0.01 0.01 0.01 0.01 0.01 0.01 0.01 0.01 0.01 0.01 0.01 0.01 0.01 0.01 0.01
0.05 0.06 0.05 0.03 0.05 0.06 0.05 0.04 0.03 0.02 0.02 0.01 0.01 0.01 0.02 0.02 0.03 0.04 0.06 0.06 0.04 0.04 0.03 0.03 0.02 0.02 0.02 0.02 0.02 0.02 0.01 0.02 0.02 0.01 0.01 0.01 0.02 0.02 0.02 0.02 0.02 0.02 0.02
0.07 0.07 0.05 0.04 0.04 0.06 0.07 0.04 0.03 0.02 0.01 0.01 0.02 0.02 0.02 0.02 0.03 0.04 0.06 0.06 0.04 0.03 0.02 0.02 0.02 0.02 0.02 0.03 0.03 0.03 0.02 0.02 0.01 0.01 0.01 0.01 0.01 0.02 0.02 0.02 0.02 0.03 0.02
0.07 0.07 0.04 0.04 0.04 0.04 0.05 0.02 0.01 0.01 0.01 0.01 0.01 0.02 0.02 0.02 0.02 0.03 0.04 0.04 0.04 0.03 0.02 0.02 0.03 0.03 0.03 0.03 0.03 0.03 0.02 0.02 0.01 0.01 0.01 0.01 0.01 0.01 0.01 0.01 0.01 0.02 0.02
0.04 0.04 0.04 0.05 0.05 0.04 0.03 0.02 0.01 0.01 0.01 0.01 0.01 0.01 0.02 0.01 0.02 0.03 0.04 0.04 0.04 0.03 0.02 0.02 0.02 0.03 0.04 0.04 0.03 0.02 0.02 0.01 0.01 0.01 0.01 0.01 0.01 0.01 0.01 0.01 0.02 0.02 0.02
0.04 0.04 0.03 0.03 0.04 0.04 0.03 0.02 0.01 0.01 0.01 0.01 0.01 0.01 0.01 0.01 0.01 0.03 0.03 0.04 0.04 0.03 0.03 0.02 0.02 0.03 0.03 0.02 0.02 0.02 0.02 0.01 0.01 0.01 0.01 0.01 0.01 0.01 0.01 0.02 0.02 0.02 0.02
0.04 0.03 0.03 0.02 0.03 0.03 0.02 0.02 0.02 0.01 0.01 0.01 0.01 0.01 0.01 0.01 0.01 0.02 0.03 0.04 0.03 0.03 0.03 0.03 0.03 0.03 0.03 0.03 0.02 0.02 0.02 0.01 0.01 0.02 0.02 0.02 0.02 0.02 0.02 0.02 0.02 0.02 0.02
0.04 0.04 0.03 0.02 0.02 0.02 0.02 0.01 0.01 0.01 0.01 0.01 0.01 0.01 0.01 0.01 0.02 0.02 0.02 0.03 0.04 0.03 0.03 0.03 0.03 0.02 0.03 0.03 0.02 0.02 0.02 0.02 0.02 0.02 0.02 0.03 0.03 0.03 0.03 0.02 0.02 0.02 0.02
0.04 0.03 0.02 0.02 0.01 0.02 0.01 0.01 0.01 0.01 0.01 0.00 0.01 0.01 0.01 0.02 0.02 0.01 0.02 0.03 0.04 0.03 0.03 0.03 0.03 0.02 0.02 0.02 0.02 0.02 0.03 0.03 0.03 0.02 0.02 0.02 0.02 0.02 0.02 0.02 0.02 0.02 0.02
0.04 0.03 0.02 0.01 0.01 0.01 0.01 0.01 0.01 0.01 0.01 0.00 0.00 0.01 0.01 0.01 0.02 0.02 0.02 0.02 0.03 0.03 0.02 0.02 0.02 0.02 0.02 0.02 0.02 0.02 0.03 0.03 0.03 0.03 0.02 0.02 0.02 0.02 0.02 0.02 0.02 0.02 0.02
MSLP
1014.93 1015.14 1015.30 1015.38 1015.39 1015.32 1015.22 1015.13 1015.08 1015.11 1015.23 1015.44 1015.70 1015.98 1016.23 1016.42 1016.53 1016.57 1016.55 1016.49 1016.45 1016.45 1016.51 1016.64 1016.84 1017.08 1017.34 1017.59 1017.81 1018.00 1018.13 1018.22 1018.28 1018.32 1018.34 1018.35 1018.35 1018.32 1018.25 1018.15 1018.00 1017.82 1017.61
1015.23 1015.39 1015.51 1015.57 1015.56 1015.49 1015.40 1015.33 1015.31 1015.36 1015.49 1015.69 1015.92 1016.16 1016.37 1016.53 1016.62 1016.65 1016.64 1016.61 1016.59 1016.61 1016.68 1016.80 1016.97 1017.17 1017.39 1017.59 1017.77 1017.93 1018.05 1018.15 1018.23 1018.30 1018.35 1018.37 1018.37 1018.31 1018.19 1018.02 1017.79 1017.51 1017.21
1015.57 1015.72 1015.82 1015.87 1015.85 1015.81 1015.75 1015.71 1015.72 1015.79 1015.92 1016.10 1016.30 1016.50 1016.67 1016.79 1016.86 1016.88 1016.88 1016.86 1016.87 1016.91 1016.99 1017.11 1017.26 1017.42 1017.58 1017.73 1017.86 1017.98 1018.08 1018.18 1018.27 1018.36 1018.43 1018.47 1018.46 1018.38 1018.23 1017.99 1017.68 1017.32 1016.92
1015.92 1016.07 1016.18 1016.23 1016.24 1016.22 1016.20 1016.21 1016.25 1016.35 1016.49 1016.66 1016.83 1016.99 1017.11 1017.20 1017.24 1017.26 1017.26 1017.28 1017.31 1017.38 1017.47 1017.59 1017.72 1017.84 1017.95 1018.04 1018.11 1018.18 1018.25 1018.33 1018.42 1018.52 1018.61 1018.65 1018.65 1018.56 1018.38 1018.10 1017.74 1017.31 1016.84
1016.18 1016.37 1016.49 1016.57 1016.61 1016.64 1016.68 1016.74 1016.84 1016.97 1017.12 1017.29 1017.44 1017.57 1017.66 1017.72 1017.75 1017.77 1017.79 1017.83 1017.90 1017.99 1018.11 1018.23 1018.34 1018.42 1018.48 1018.51 1018.53 1018.54 1018.57 1018.62 1018.70 1018.80 1018.89 1018.95 1018.96 1018.87 1018.69 1018.40 1018.01 1017.54 1017.03
1016.31 1016.53 1016.70 1016.81 1016.90 1016.99 1017.09 1017.21 1017.37 1017.55 1017.73 1017.91 1018.06 1018.18 1018.26 1018.31 1018.34 1018.37 1018.42 1018.49 1018.60 1018.73 1018.87 1019.00 1019.10 1019.15 1019.17 1019.14 1019.10 1019.06 1019.04 1019.06 1019.12 1019.20 1019.30 1019.37 1019.39 1019.33 1019.16 1018.88 1018.49 1018.03 1017.50
1016.27 1016.53 1016.73 1016.89 1017.04 1017.20 1017.37 1017.57 1017.80 1018.03 1018.27 1018.48 1018.65 1018.77 1018.86 1018.92 1018.96 1019.02 1019.10 1019.22 1019.38 1019.55 1019.72 1019.86 1019.96 1020.00 1019.98 1019.91 1019.82 1019.73 1019.66 1019.64 1019.67 1019.74 1019.84 1019.92 1019.96 1019.92 1019.78 1019.54 1019.19 1018.75 1018.25
1016.06 1016.35 1016.60 1016.81 1017.02 1017.25 1017.50 1017.79 1018.10 1018.41 1018.70 1018.96 1019.17 1019.32 1019.43 1019.52 1019.59 1019.69 1019.81 1019.98 1020.18 1020.40 1020.60 1020.77 1020.88 1020.92 1020.89 1020.79 1020.66 1020.53 1020.43 1020.37 1020.37 1020.42 1020.51 1020.60 1020.65 1020.64 1020.55 1020.35 1020.05 1019.66 1019.20
1015.74 1016.06 1016.34 1016.61 1016.89 1017.20 1017.55 1017.92 1018.32 1018.71 1019.07 1019.39 1019.65 1019.84 1019.99 1020.10 1020.22 1020.35 1020.52 1020.73 1020.98 1021.24 1021.48 1021.69 1021.82 1021.87 1021.84 1021.74 1021.59 1021.44 1021.31 1021.22 1021.20 1021.23 1021.30 1021.38 1021.45 1021.46 1021.40 1021.25 1021.00 1020.66 1020.25
1015.39 1015.74 1016.06 1016.39 1016.75 1017.14 1017.58 1018.05 1018.53 1019.01 1019.44 1019.82 1020.13 1020.37 1020.55 1020.70 1020.85 1021.01 1021.22 1021.47 1021.75 1022.05 1022.33 1022.57 1022.74 1022.82 1022.81 1022.72 1022.58 1022.42 1022.28 1022.18 1022.13 1022.14 1022.19 1022.26 1022.32 1022.34 1022.30 1022.17 1021.96 1021.66 1021.28
1015.10 1015.48 1015.85 1016.25 1016.68 1017.16 1017.69 1018.25 1018.83 1019.38 1019.89 1020.32 1020.67 1020.95 1021.16 1021.33 1021.50 1021.69 1021.91 1022.19 1022.50 1022.82 1023.14 1023.41 1023.62 1023.73 1023.76 1023.71 1023.59 1023.45 1023.31 1023.20 1023.14 1023.12 1023.14 1023.19 1023.22 1023.23 1023.18 1023.06 1022.85 1022.57 1022.21
1014.93 1015.34 1015.77 1016.24 1016.76 1017.34 1017.96 1018.61 1019.26 1019.88 1020.45 1020.93 1021.31 1021.61 1021.84 1022.03 1022.21 1022.40 1022.63 1022.90 1023.23 1023.57 1023.91 1024.21 1024.45 1024.61 1024.68 1024.67 1024.60 1024.49 1024.36 1024.25 1024.18 1024.13 1024.12 1024.12 1024.12 1024.09 1024.00 1023.85 1023.63 1023.34 1022.97
1014.91 1015.37 1015.86 1016.41 1017.02 1017.69 1018.40 1019.13 1019.85 1020.53 1021.14 1021.65 1022.06 1022.37 1022.60 1022.79 1022.96 1023.14 1023.36 1023.63 1023.94 1024.29 1024.63 1024.96 1025.23 1025.44 1025.56 1025.60 1025.57 1025.49 1025.40 1025.29 1025.20 1025.13 1025.08 1025.03 1024.96 1024.87 1024.73 1024.53 1024.26 1023.92 1023.51
1015.03 1015.54 1016.11 1016.75 1017.45 1018.20 1018.99 1019.79 1020.56 1021.28 1021.92 1022.45 1022.86 1023.18 1023.41 1023.58 1023.74 1023.90 1024.10 1024.35 1024.65 1024.98 1025.33 1025.66 1025.96 1026.20 1026.37 1026.45 1026.47 1026.44 1026.37 1026.27 1026.17 1026.07 1025.97 1025.86 1025.73 1025.56 1025.35 1025.08 1024.74 1024.34 1023.87
1015.25 1015.83 1016.49 1017.21 1017.99 1018.81 1019.66 1020.51 1021.32 1022.06 1022.71 1023.25 1023.67 1023.98 1024.21 1024.37 1024.51 1024.66 1024.84 1025.06 1025.34 1025.65 1025.99 1026.33 1026.64 1026.90 1027.10 1027.23 1027.29 1027.29 1027.24 1027.15 1027.04 1026.91 1026.76 1026.58 1026.38 1026.14 1025.85 1025.51 1025.10 1024.63 1024.09
1015.53 1016.19 1016.92 1017.71 1018.55 1019.43 1020.32 1021.19 1022.01 1022.76 1023.42 1023.96 1024.38 1024.69 1024.92 1025.09 1025.23 1025.37 1025.53 1025.73 1025.99 1026.28 1026.60 1026.93 1027.25 1027.52 1027.75 1027.90 1027.99 1028.02 1027.98 1027.90 1027.77 1027.61 1027.42 1027.19 1026.92 1026.61 1026.26 1025.85 1025.37 1024.84 1024.25
1015.84 1016.56 1017.34 1018.18 1019.06 1019.97 1020.87 1021.74 1022.57 1023.31 1023.96 1024.50 1024.93 1025.26 1025.50 1025.69 1025.84 1025.99 1026.15 1026.35 1026.58 1026.86 1027.16 1027.48 1027.78 1028.06 1028.29 1028.47 1028.58 1028.62 1028.59 1028.51 1028.37 1028.18 1027.95 1027.68 1027.36 1027.00 1026.58 1026.12 1025.60 1025.03 1024.39
1016.15 1016.91 1017.73 1018.59 1019.48 1020.37 1021.26 1022.12 1022.92 1023.65 1024.29 1024.84 1025.28 1025.64 1025.91 1026.13 1026.32 1026.49 1026.67 1026.87 1027.10 1027.37 1027.65 1027.95 1028.24 1028.51 1028.74 1028.92 1029.04 1029.09 1029.07 1028.98 1028.83 1028.63 1028.37 1028.06 1027.70 1027.30 1026.85 1026.36 1025.81 1025.22 1024.56
1016.45 1017.23 1018.05 1018.90 1019.76 1020.63 1021.48 1022.29 1023.06 1023.77 1024.40 1024.96 1025.43 1025.82 1026.14 1026.41 1026.65 1026.86 1027.07 1027.29 1027.53 1027.78 1028.06 1028.33 1028.61 1028.86 1029.09 1029.26 1029.38 1029.43 1029.41 1029.33 1029.17 1028.95 1028.67 1028.34 1027.96 1027.54 1027.07 1026.56 1026.01 1025.41 1024.76
1016.73 1017.49 1018.29 1019.10 1019.92 1020.73 1021.53 1022.29 1023.02 1023.70 1024.33 1024.89 1025.39 1025.83 1026.21 1026.55 1026.84 1027.11 1027.36 1027.61 1027.85 1028.11 1028.37 1028.63 1028.88 1029.12 1029.33 1029.49 1029.61 1029.66 1029.65 1029.56 1029.41 1029.18 1028.89 1028.55 1028.15 1027.72 1027.24 1026.73 1026.18 1025.59 1024.96
1016.96 1017.69 1018.45 1019.21 1019.97 1020.71 1021.45 1022.16 1022.85 1023.50 1024.12 1024.70 1025.23 1025.72 1026.16 1026.56 1026.92 1027.24 1027.53 1027.81 1028.07 1028.33 1028.57 1028.82 1029.05 1029.27 1029.47 1029.63 1029.74 1029.80 1029.79 1029.71 1029.56 1029.33 1029.04 1028.69 1028.29 1027.84 1027.36 1026.84 1026.30 1025.73 1025.11
1017.13 1017.82 1018.52 1019.23 1019.92 1020.61 1021.29 1021.95 1022.59 1023.22 1023.84 1024.43 1025.00 1025.53 1026.03 1026.48 1026.90 1027.27 1027.61 1027.91 1028.18 1028.44 1028.68 1028.91 1029.12 1029.33 1029.51 1029.66 1029.78 1029.84 1029.84 1029.77 1029.63 1029.41 1029.12 1028.76 1028.35 1027.89 1027.40 1026.89 1026.34 1025.77 1025.18
1017.21 1017.86 1018.52 1019.17 1019.82 1020.45 1021.08 1021.70 1022.32 1022.93 1023.54 1024.14 1024.73 1025.30 1025.84 1026.34 1026.80 1027.21 1027.58 1027.90 1028.19 1028.44 1028.67 1028.89 1029.09 1029.28 1029.45 1029.60 1029.72 1029.79 1029.80 1029.74 1029.61 1029.40 1029.12 1028.76 1028.34 1027.87 1027.37 1026.83 1026.28 1025.71 1025.12
1017.19 1017.81 1018.44 1019.06 1019.67 1020.28 1020.87 1021.46 1022.06 1022.66 1023.26 1023.87 1024.47 1025.06 1025.63 1026.16 1026.65 1027.08 1027.47 1027.80 1028.09 1028.34 1028.56 1028.77 1028.96 1029.13 1029.30 1029.45 1029.57 1029.64 1029.67 1029.62 1029.50 1029.31 1029.02 1028.67 1028.24 1027.76 1027.24 1026.69 1026.11 1025.53 1024.93
1017.05 1017.68 1018.29 1018.90 1019.50 1020.09 1020.67 1021.25 1021.83 1022.42 1023.01 1023.62 1024.22 1024.81 1025.39 1025.93 1026.43 1026.88 1027.27 1027.61 1027.90 1028.14 1028.36 1028.55 1028.73 1028.90 1029.06 1029.20 1029.32 1029.40 1029.43 1029.40 1029.29 1029.11 1028.83 1028.47 1028.04 1027.55 1027.01 1026.44 1025.85 1025.25 1024.63
1016.83 1017.47 1018.09 1018.71 1019.31 1019.90 1020.48 1021.05 1021.62 1022.20 1022.78 1023.37 1023.96 1024.55 1025.11 1025.65 1026.15 1026.60 1026.99 1027.33 1027.62 1027.86 1028.07 1028.26 1028.43 1028.59 1028.73 1028.87 1028.98 1029.07 1029.10 1029.07 1028.97 1028.79 1028.52 1028.17 1027.74 1027.24 1026.69 1026.11 1025.50 1024.89 1024.26
Thickness
5701 5701 5701 5701 5701 5700 5700 5699 5698 5698 5697 5695 5694 5693 5692 5690 5690 5688 5686 5684 5682 5680 5680 5679 5677 5677 5674 5673 5672 5670 5667 5663 5655 5652 5652 5651 5650 5647 5644 5642 5640 5639 5637
5697 5697 5696 5697 5697 5697 5696 5697 5697 5696 5696 5695 5694 5692 5691 5690 5689 5687 5684 5683 5681 5679 5678 5677 5675 5675 5672 5671 5669 5667 5665 5663 5657 5650 5648 5648 5647 5645 5643 5641 5639 5636 5635
5693 5692 5692 5692 5693 5693 5693 5694 5694 5694 5693 5693 5692 5691 5690 5689 5688 5686 5684 5683 5681 5679 5678 5676 5674 5673 5669 5668 5667 5665 5663 5662 5658 5652 5647 5646 5644 5643 5640 5639 5637 5635 5633
5688 5688 5687 5688 5689 5689 5690 5691 5691 5691 5691 5690 5690 5690 5689 5688 5687 5686 5684 5682 5680 5679 5677 5676 5674 5672 5669 5667 5665 5663 5661 5658 5655 5650 5646 5643 5641 5640 5638 5635 5633 5632 5631
5684 5683 5683 5685 5685 5685 5685 5686 5687 5687 5688 5687 5687 5687 5687 5686 5685 5683 5682 5680 5678 5676 5675 5674 5673 5671 5669 5667 5665 5662 5659 5655 5651 5647 5643 5640 5638 5635 5634 5633 5630 5629 5628
5679 5679 5680 5680 5680 5680 5681 5682 5683 5683 5684 5683 5683 5682 5681 5682 5681 5680 5679 5678 5676 5674 5672 5670 5669 5668 5666 5665 5663 5661 5658 5654 5650 5646 5642 5639 5637 5635 5634 5632 5628 5625 5622
5674 5675 5675 5675 5675 5676 5677 5678 5678 5678 5679 5678 5678 5678 5676 5676 5676 5676 5676 5675 5673 5671 5670 5668 5667 5665 5663 5661 5659 5657 5655 5653 5651 5648 5643 5640 5638 5637 5633 5630 5627 5625 5622
5669 5670 5670 5670 5669 5670 5671 5672 5673 5674 5673 5673 5673 5673 5672 5672 5672 5671 5671 5671 5669 5668 5667 5666 5664 5661 5660 5657 5655 5652 5650 5649 5648 5647 5645 5643 5641 5638 5634 5631 5627 5623 5622
5664 5664 5665 5665 5664 5664 5665 5666 5668 5669 5669 5669 5669 5668 5667 5667 5668 5668 5667 5666 5665 5664 5664 5663 5662 5658 5657 5655 5651 5647 5645 5644 5644 5644 5643 5641 5639 5636 5632 5628 5623 5618 5614
5659 5660 5661 5661 5659 5659 5660 5661 5663 5664 5664 5665 5664 5664 5664 5663 5663 5663 5663 5662 5660 5659 5659 5658 5657 5655 5653 5651 5647 5644 5640 5640 5639 5637 5636 5635 5633 5631 5628 5625 5621 5616 5611
5655 5655 5656 5656 5655 5654 5655 5656 5658 5659 5659 5659 5659 5659 5660 5660 5659 5659 5658 5658 5657 5656 5654 5653 5652 5651 5649 5646 5644 5641 5639 5637 5635 5632 5630 5628 5627 5625 5623 5621 5618 5615 5610
5649 5649 5649 5650 5650 5650 5649 5650 5651 5652 5652 5652 5653 5653 5654 5655 5655 5654 5654 5654 5654 5652 5650 5649 5648 5647 5644 5641 5639 5638 5636 5634 5630 5627 5624 5622 5620 5619 5618 5615 5613 5611 5608
5642 5642 5643 5643 5643 5644 5643 5643 5644 5645 5645 5646 5646 5647 5648 5650 5650 5650 5649 5649 5649 5647 5646 5646 5644 5642 5639 5636 5634 5633 5631 5628 5625 5622 5620 5618 5617 5615 5613 5610 5607 5605 5602
5635 5636 5637 5637 5637 5638 5638 5638 5638 5638 5639 5640 5640 5641 5643 5644 5644 5644 5644 5643 5642 5641 5640 5639 5637 5635 5633 5631 5629 5627 5625 5624 5622 5619 5617 5615 5613 5610 5607 5604 5601 5598 5594
5628 5630 5631 5632 5632 5631 5632 5632 5633 5634 5635 5635 5637 5638 5637 5638 5640 5641 5640 5639 5638 5637 5635 5632 5629 5627 5625 5624 5623 5622 5621 5619 5617 5615 5613 5610 5607 5604 5601 5599 5596 5592 5588
5622 5624 5625 5625 5626 5626 5625 5626 5628 5629 5631 5632 5633 5633 5634 5635 5636 5635 5635 5635 5634 5632 5630 5627 5625 5624 5622 5620 5619 5617 5616 5614 5613 5611 5608 5606 5602 5599 5596 5593 5590 5587 5584
5616 5617 5619 5620 5620 5620 5621 5621 5621 5621 5623 5624 5626 5627 5627 5628 5628 5628 5628 5627 5626 5625 5624 5624 5622 5621 5619 5617 5615 5614 5612 5611 5609 5607 5604 5601 5598 5595 5591 5588 5585 5582 5579
5610 5611 5612 5613 5614 5614 5616 5617 5617 5616 5616 5616 5618 5620 5620 5621 5621 5620 5619 5617 5616 5617 5619 5619 5618 5617 5616 5614 5612 5610 5608 5606 5604 5602 5599 5597 5594 5590 5587 5583 5581 5578 5575
5603 5604 5605 5606 5607 5608 5610 5612 5612 5611 5611 5611 5611 5611 5613 5613 5612 5611 5611 5611 5612 5613 5613 5614 5614 5613 5612 5611 5609 5607 5604 5602 5600 5598 5595 5592 5589 5586 5583 5580 5576 5573 5569
5596 5597 5598 5598 5600 5601 5602 5605 5605 5605 5605 5605 5605 5605 5605 5604 5604 5603 5604 5605 5607 5608 5608 5608 5608 5608 5607 5606 5605 5602 5600 5598 5596 5593 5590 5588 5585 5582 5579 5575 5571 5567 5564
5588 5589 5590 5591 5592 5593 5595 5597 5598 5598 5598 5598 5599 5600 5599 5598 5599 5599 5598 5599 5601 5602 5603 5603 5603 5602 5602 5601 5599 5597 5595 5593 5591 5588 5585 5582 5580 5576 5573 5570 5567 5563 5559
5580 5581 5581 5583 5584 5585 5587 5589 5591 5591 5592 5591 5591 5591 5591 5591 5592 5592 5593 5594 5595 5596 5597 5597 5597 5596 5596 5595 5594 5592 5590 5588 5585 5583 5580 5577 5574 5571 5568 5564 5560 5557 5553
5571 5572 5573 5574 5576 5578 5579 5581 5582 5583 5584 5584 5584 5584 5583 5584 5585 5586 5587 5588 5588 5588 5589 5590 5590 5589 5589 5589 5588 5587 5585 5584 5582 5579 5575 5572 5569 5566 5563 5559 5555 5551 5547
5563 5564 5564 5566 5568 5569 5571 5572 5574 5575 5576 5576 5577 5576 5576 5577 5578 5579 5580 5581 5581 5581 5581 5582 5582 5583 5582 5582 5581 5581 5579 5578 5576 5574 5571 5568 5565 5561 5557 5553 5550 5546 5542
5555 5556 5557 5558 5559 5561 5562 5564 5565 5567 5568 5568 5568 5568 5568 5570 5570 5571 5572 5572 5572 5573 5573 5573 5574 5575 5575 5574 5574 5573 5572 5570 5569 5567 5564 5562 5559 5556 5552 5548 5544 5540 5536
5547 5548 5549 5550 5550 5552 5553 5554 5556 5558 5559 5560 5560 5560 5560 5561 5562 5563 5563 5563 5563 5564 5565 5566 5566 5566 5566 5566 5566 5565 5564 5563 5561 5559 5556 5554 5551 5548 5545 5542 5538 5534 5529